TeikyoSat 4
1 49396U 21102B 21364.56962493 .00000645 00000-0 56001-4 0 9998
2 49396 97.5548 62.6653 0018271 97.1767 263.1535 15.00280115 7729
Z-Sat
1 49399U 21102E 21364.51172649 .00001419 00000-0 11224-3 0 9999
2 49399 97.5645 62.7633 0021491 84.0804 276.2869 15.02019305 7722
KOSEN 1
1 49402U 21102H 21364.48132429 .00000640 00000-0 51863-4 0 9991
2 49402 97.5561 62.7715 0024788 75.6003 284.7971 15.02898096 7724
XW 3
1 50466U 21131B 21364.42242782 .00000154 00000-0 65159-4 0 9996
2 50466 98.5977 76.6444 0003413 292.8070 67.2754 14.38435491 618
/EX SB KEPS @ AMSAT $ORB21364.N
2Line Orbital Elements 21364.AMSAT
HR AMSAT ORBITAL ELEMENTS FOR AMATEUR SATELLITES IN NASA FORMAT
FROM WA5QGD FORT WORTH,TX December 30, 2021
BID: ORB21364.N
DECODE 2-LINE ELSETS WITH THE FOLLOWING KEY:
1 AAAAAU 00 0 0 BBBBB.BBBBBBBB .CCCCCCCC 00000-0 00000-0 0 DDDZ
2 AAAAA EEE.EEEE FFF.FFFF GGGGGGG HHH.HHHH III.IIII JJ.JJJJJJJJKKKKKZ
KEY: A-CATALOGNUM B-EPOCHTIME C-DECAY D-ELSETNUM E-INCLINATION F-RAAN
G-ECCENTRICITY H-ARGPERIGEE I-MNANOM J-MNMOTION K-ORBITNUM Z-CHECKSUM
TO ALL RADIO AMATEURS BT
AO-07
1 07530U 74089B 21364.57234113 -.00000030 00000-0 98419-4 0 9994
2 07530 101.8832 339.0599 0012375 6.7712 104.6529 12.53652141156301
UO-11
1 14781U 84021B 21364.55962497 .00000490 00000-0 65722-4 0 9998
2 14781 97.6042 354.8698 0009121 148.2258 211.9508 14.83399063 15005
LO-19
1 20442U 90005G 21364.48163118 .00000072 00000-0 43016-4 0 9991
2 20442 98.7702 321.9976 0010921 308.7971 51.2236 14.33013779668908
HUBBLE
1 20580U 90037B 21363.99772336 .00001388 00000-0 72540-4 0 9997
2 20580 28.4687 211.0025 0002680 12.7136 135.1165 15.09915027540571
MET-2/21
1 22782U 93055A 21364.52848539 .00000047 00000-0 28967-4 0 9990
2 22782 82.5490 148.3129 0023549 101.3466 325.5874 13.83844016430642
AO-27
1 22825U 93061C 21364.55603684 .00000042 00000-0 34158-4 0 9992
2 22825 98.9050 26.8628 0008495 176.9816 183.1418 14.30137583474015
IO-26
1 22826U 93061D 21364.54979175 .00000048 00000-0 36362-4 0 9998
2 22826 98.8992 26.7479 0009250 164.6787 195.4676 14.30479114474262
FO-29
1 24278U 96046B 21364.54726764 -.00000005 00000-0 31881-4 0 9996
2 24278 98.5406 46.2904 0350323 1.6310 358.5889 13.53108985252760
NOAA-15
1 25338U 98030A 21364.54255677 .00000077 00000-0 50330-4 0 9997
2 25338 98.6635 31.1252 0011341 72.1083 288.1332 14.26079360228945
GO-32
1 25397U 98043D 21364.48244599 .00000019 00000-0 28038-4 0 9996
2 25397 98.7968 309.7133 0000679 181.4793 178.6383 14.23726504219389
ISS
1 25544U 98067A 21364.58225513 .00006501 00000-0 12261-3 0 9994
2 25544 51.6441 91.5424 0004841 342.0852 149.8473 15.49806377319031
NO-44
1 26931U 01043C 21364.55466239 .00000029 00000-0 42702-4 0 9995
2 26931 67.0509 134.3307 0006433 280.7245 79.3132 14.30652002 57241
SO-50
1 27607U 02058C 21364.61129165 .00000315 00000-0 64905-4 0 9991
2 27607 64.5555 98.4488 0064679 328.8617 30.8658 14.75861477 23456
CO-55
1 27844U 03031E 21364.60266281 .00000158 00000-0 90771-4 0 9991
2 27844 98.6800 9.8391 0009095 226.9694 133.0722 14.22364552959868
CO-57
1 27848U 03031J 21364.51387312 .00000132 00000-0 79590-4 0 9992
2 27848 98.6850 10.2993 0008817 242.2626 117.7657 14.21933983959672
RS-22
1 27939U 03042A 21364.40489295 .00000577 00000-0 11138-3 0 9992
2 27939 98.1654 140.4731 0013361 27.1818 333.0086 14.67093565976254
NOAA-18
1 28654U 05018A 21364.49984102 .00000111 00000-0 83785-4 0 9990
2 28654 98.9720 69.9178 0015176 89.7257 270.5653 14.12672102856126
CO-58
1 28895U 05043F 21364.31193381 .00000543 00000-0 11252-3 0 9995
2 28895 98.0833 133.6013 0015731 316.7529 43.2437 14.64041058862666
Falconsat-3
1 30776U 07006E 21364.07925237 .00015595 00000-0 33356-3 0 9995
2 30776 35.4341 280.5518 0004245 268.4551 91.5692 15.43953721823320
CO-65
1 32785U 08021C 21364.44725659 .00001170 00000-0 12990-3 0 9997
2 32785 97.6360 335.9693 0014412 75.5121 284.7694 14.88963154741336
AAUSAT2
1 32788U 08021F 21364.49346216 .00002688 00000-0 24369-3 0 9991
2 32788 97.5187 351.1408 0011005 337.9807 22.0940 14.96100369743160
DO-64
1 32789U 08021G 21364.56262575 .00006462 00000-0 39804-3 0 9999
2 32789 97.3585 32.3009 0011387 179.5059 180.6184 15.10257011746414
CO-66
1 32791U 08021J 21364.45425177 .00001673 00000-0 17116-3 0 9990
2 32791 97.5927 341.6720 0014066 38.7780 321.4446 14.91753990741998
RS-30
1 32953U 08025A 21364.36490061 .00000021 00000-0 80971-4 0 9994
2 32953 82.5041 289.0803 0018530 271.6128 88.2830 12.43106659617323
PRISM
1 33493U 09002B 21364.52200214 .00002787 00000-0 23952-3 0 9993
2 33493 98.2121 336.8573 0014610 0.3076 359.8151 14.98257726703676
NOAA-19
1 33591U 09005A 21364.55320002 .00000076 00000-0 66638-4 0 9994
2 33591 99.1681 29.9733 0013139 304.4348 55.5580 14.12518729664344
SRMSAT
1 37841U 11058D 21363.87503341 .00000369 00000-0 57812-4 0 9999
2 37841 19.9703 199.9245 0011814 280.9887 219.0007 14.10718538527269
HRBE
1 37855U 11061F 21364.38158907 .00005509 00000-0 26169-3 0 9990
2 37855 101.7213 29.7829 0162673 207.3970 151.8597 15.09112012555716
RS-40
1 38735U 12041C 21364.49116506 -.00000021 00000-0 -22199-3 0 9993
2 38735 82.4778 10.8541 0017605 23.4056 336.7824 12.42583504427530
ZACUBE-1
1 39417U 13066B 21364.50547943 .00001078 00000-0 13949-3 0 9998
2 39417 97.6157 338.9354 0057067 237.7874 121.7799 14.81752815438103
Delfi-N3xt
1 39428U 13066N 21364.36303772 .00001325 00000-0 21350-3 0 9994
2 39428 97.8014 301.2530 0120482 98.0229 263.4668 14.68327716433716
GOMX-1
1 39430U 13066Q 21364.37601463 .00000792 00000-0 15121-3 0 9992
2 39430 97.8158 276.2022 0149132 217.4061 141.6667 14.59795861431623
LO-74
1 39440U 13066AA 21364.46251356 .00001374 00000-0 19495-3 0 9990
2 39440 97.7040 324.4357 0078692 320.5641 38.9857 14.76467166435347
AO-73
1 39444U 13066AE 21364.50209224 .00001253 00000-0 15755-3 0 9997
2 39444 97.6049 341.3231 0056185 226.8147 132.8366 14.82706921436487
SPROUT
1 39770U 14029E 21364.27003848 .00003597 00000-0 38722-3 0 9999
2 39770 97.9310 115.6199 0007439 286.5554 73.4847 14.89096567412473
DTUSAT-2
1 40030U 14033W 21364.29757697 .00001414 00000-0 15523-3 0 9995
2 40030 97.9278 291.6025 0010401 249.0354 110.9750 14.89261071408463
EO-80
1 40032U 14033Y 21364.60196093 .00001225 00000-0 13543-3 0 9999
2 40032 97.9284 291.9176 0010329 248.8369 111.1744 14.89224561408485
HODOYOSHI-1
1 40299U 14070B 21364.35865111 .00003288 00000-0 13285-3 0 9995
2 40299 97.2668 72.4764 0013417 23.3497 35.1193 15.25364791397271
FIREBIRD FU3
1 40377U 15003B 21364.48718823 .00011419 00000-0 39078-3 0 9993
2 40377 99.1123 187.3851 0111083 234.9613 124.1158 15.24688587382631
FIREBIRD FU4
1 40378U 15003C 21364.45611790 .00013857 00000-0 47208-3 0 9998
2 40378 99.1128 187.5234 0111113 234.8012 124.2777 15.24755757382632
GRIFEX
1 40379U 15003D 21364.47235894 .00008428 00000-0 32667-3 0 9999
2 40379 99.1138 175.1076 0123139 272.2471 86.4664 15.19661365381938
